Location: Chillicothe
(39.7950°N, 93.5520°W)
Time: 17:48:29
(UTC-06:00)

Altair - Pass Details

Date: 01 November 2019
Orbit: 1502 x 1682 km, 47.2° (Epoch: 20 November)

Event Time Altitude Azimuth Distance (km) Brightness Sun altitude
Rises 06:13:15 0° 180° (S) 4,618 10.1 -17.6°
Reaches altitude 10° 06:17:37 10° 161° (SSE) 3,646 9.8 -16.8°
Maximum altitude 06:23:02 17° 124° (SE) 3,121 10.0 -15.8°
Drops below altitude 10° 06:28:31 10° 87° (E) 3,702 10.9 -14.7°
Sets 06:32:56 0° 70° (ENE) 4,718 11.2 -13.9°
